CZ-6A DEB, 56277

Orbit data source: Space-Track

CZ-6A DEB, 56277 is space debris in SSO originally from a launch on Fri, 11 Nov 2022 UTC launched from the Taiyaun Space Center, China (TSC). Debris objects in space refer to the collection of defunct objects orbiting the Earth. Examples of debris include non-operational satellites, rocket bodies, and fragments generated from explosions, collisions, or faulty payload assembly.

Loading next visibility...
Identifier
56277, 2022-151ACV
Orbit
SSO
Country
Flag of CNCN / PRC
Related business
Manufacturer
SAST
Mission
Spacecraft
Bus & Motor
Unknown
Mass
Unknown
Launch date (UTC)
2022-11-11 (3 years ago)
Launch vehicle
Unknown
Launch site
Taiyaun Space Center, China (TSC)
Object type
Payload
Rocket body
Debris
Shape & HBR
Unknown shape, 0.1 m
Radar Cross Section
Small (<0.1 m²)

Expand to show TLE details & history
Last TLE update: 1 day ago

TLE from 1 day ago
0 CZ-6A DEB
1 56277U 22151ACV 25348.99327044  .00001820  00000-0  71594-3 0  9998
2 56277  98.7327   8.4416 0048190 144.4845 215.9561 14.29845119142594
Epoch: 2025-12-14T23:50Z
TLE epoch observation values (Epoch: 2025-12-14T23:50:18.566Z)
Latitude
0.00002°
Longitude
-73.03398°
Altitude
823.209 km
Speed
7.427 km/s
True Right ascension
00h 33m 45s
True Declination
0° 00' 00"
Sunlit
Object was in daylight at epoch
Visualization orbit readout
Latitude
Unknown
Longitude
Unknown
Altitude
Unknown
Speed
Unknown
Apparent Right ascension
Unknown
Apparent Declination
Unknown
Sunlit
N/A
Visualization observer readout
Local Sidereal Time
06:13:43
Azimuth
Unknown
Elevation
Unknown
Doppler factor
Unknown
Orbital elements
Apogee altitude
823.935 km
Perigee altitude
754.855 km
Semi-major axis
7,167.532 km
Eccentricity
0.00482
Inclination
98.7327°
RAAN
8.4416°
Arg. of periapsis
144.4845°
True anomaly
215.63343°
Mean anomaly
215.9561°
Eccentric anomaly
215.79461°
Mean motion
3.57675 °/min
Orbital period
100.65 mins
BSTAR
0.00071594
Loading maneuver chart data...
Computing Atmospheric mass density...
Loading historical data...
Loading historical data...
Loading historical data...
Loading historical data...
Loading historical data...
Loading historical data...
Loading historical data...

Documentation

Showing up to 5 results
|